Home > Weather > Uppsala > Past weeks

Flag for Sweden Past Weather in Uppsala, Sweden — Yesterday and Last 2 Weeks

Now
64 °F

Sunny.


Feels Like: 64 °F
Forecast: 55 / 71 °F
Wind: 3 mph from South

Location: Stockholm / Arlanda

Current Time: Jul 30, 2016 at 7:28:53 AM

Latest Report: Jul 30, 2016 at 6:50 AM


Visibility: 10 mi

Pressure: 29.68 "Hg

Humidity: 83%

Dew Point: 59 °F

Location of UppsalaLocation

Past Weather in Uppsala — Graph

°F

Uppsala Temperature Yesterday

Maximum temperature yesterday: 75 °F (at 2:20 PM)
Minimum temperature yesterday: 52 °F (at 5:20 AM)
Average temperature yesterday: 66 °F

High & Low Weather Summary for the Past Weeks

 TemperatureHumidityPressure
High84 °F (Jul 25, 1:20 PM)100% (Jul 15, 6:20 AM)30.12 "Hg (Jul 15, 6:20 AM)
Low43 °F (Jul 21, 4:20 AM)27% (Jul 23, 9:50 AM)29.71 "Hg (Jul 30, 2:50 AM)
Average65 °F70%29.96 "Hg
* Reported Jul 15 6:20 AM — Jul 30 6:20 AM, Uppsala, Weather by CustomWeather, © 2016

Note: Actual official high and low records may vary slightly from our data, if they occured in-between our weather recording intervals... More about our weather records

Advertising

Uppsala Weather History for the Previous 24 Hours

Scroll right to see more
 ConditionsComfort  
Time TempWeatherWind HumidityBarometerVisibility
6:20 AM
Sat, Jul 30
61 °FSunny.3 mph94%29.71 "Hg10 mi
5:50 AM61 °FLight fog.3 mph100%29.71 "HgN/A
5:20 AM59 °FFog.3 mph100%29.71 "HgN/A
4:50 AM59 °FFog.5 mph94%29.71 "HgN/A
4:20 AM59 °FClear.3 mph100%29.71 "Hg10 mi
3:50 AM61 °FClear.2 mph94%29.71 "Hg10 mi
3:20 AM61 °FClear.3 mph100%29.71 "Hg10 mi
2:50 AM61 °FClear.3 mph100%29.71 "Hg10 mi
2:20 AM63 °FClear.3 mph88%29.74 "Hg10 mi
1:50 AM63 °FClear.5 mph94%29.74 "Hg10 mi
1:20 AM64 °FClear.5 mph88%29.74 "Hg10 mi
12:50 AM64 °FClear.5 mph88%29.74 "Hg10 mi
12:20 AM64 °FClear.6 mph88%29.74 "Hg10 mi
11:50 PM
Fri, Jul 29
66 °FClear.6 mph78%29.74 "Hg10 mi
11:20 PM66 °FClear.6 mph78%29.74 "Hg10 mi
10:50 PM68 °FClear.6 mph69%29.74 "Hg10 mi
10:20 PM66 °FSunny.6 mph78%29.77 "Hg10 mi
9:50 PM68 °FSunny.8 mph73%29.74 "Hg10 mi
9:20 PM68 °FSunny.8 mph69%29.74 "Hg10 mi
8:50 PM70 °FSunny.8 mph60%29.74 "Hg10 mi
8:20 PM72 °FPassing clouds.8 mph53%29.74 "HgN/A
7:50 PM72 °FSunny.7 mph53%29.74 "Hg10 mi
7:20 PM73 °FSunny.7 mph44%29.74 "Hg10 mi
6:50 PM73 °FSunny.6 mph44%29.74 "Hg10 mi
6:20 PM75 °FPassing clouds.6 mph41%29.77 "HgN/A
5:50 PM75 °FPassing clouds.7 mph41%29.77 "HgN/A
5:20 PM75 °FPassing clouds.7 mph41%29.77 "HgN/A
4:50 PM75 °FSunny.10 mph39%29.77 "Hg10 mi
4:20 PM73 °FPassing clouds.9 mph38%29.77 "HgN/A
3:50 PM75 °FPassing clouds.8 mph36%29.77 "HgN/A
3:20 PM75 °FPassing clouds.8 mph39%29.80 "HgN/A
2:50 PM75 °FSunny.9 mph39%29.80 "Hg10 mi
2:20 PM75 °FSunny.7 mph39%29.80 "Hg10 mi
1:50 PM73 °FPassing clouds.7 mph44%29.80 "HgN/A
1:20 PM73 °FPassing clouds.8 mph47%29.80 "HgN/A
12:50 PM73 °FPassing clouds.7 mph47%29.80 "HgN/A
12:20 PM72 °FPassing clouds.6 mph47%29.80 "HgN/A
11:50 AM72 °FPassing clouds.7 mph47%29.83 "HgN/A
11:20 AM70 °FPassing clouds.9 mph57%29.83 "HgN/A
10:50 AM70 °FSunny.7 mph53%29.83 "Hg10 mi
10:20 AM68 °FPassing clouds.7 mph60%29.83 "HgN/A
9:50 AM68 °FPassing clouds.8 mph60%29.83 "HgN/A
9:20 AM68 °FPassing clouds.5 mph64%29.83 "HgN/A
8:50 AM64 °FPassing clouds.5 mph73%29.83 "HgN/A
8:20 AM64 °FPassing clouds.5 mph73%29.83 "HgN/A
7:50 AM63 °FSunny.6 mph83%29.83 "Hg10 mi
7:20 AM61 °FSunny.6 mph83%29.83 "Hg10 mi
Weather by CustomWeather, © 2016

See weather overviewHow to use our weather pages